OBJECT AX, 61780

Orbit data source: Space-Track

You're viewing an uncataloged RSO

Recently launched and/or uncataloged RSOs may have evolving metadata. Metadata may include the following, but is not limited to: Owner, Manufacturer, Bus, Motor, and Mission.

OBJECT AX, 61780 is a satellite in SSO that was launched on Mon, 04 Nov 2024 UTC via a SOYUZ-2-1B launch vehicle from the Vostochny Cosmodrome (VOSTO). Unknown objects in Earth's orbit typically refer to objects detected orbiting the Earth but have not yet been identified or cataloged. These objects could be anything from previously untracked satellites, spent rocket stages, debris from satellite collisions, or even natural meteoroids temporarily captured by Earth's gravity.

Loading next visibility...
Identifier
61780, 2024-199AX
Orbit
SSO
Country
Flag of TBDTBD
Related business
Manufacturer
Sputniks
Mission
Operational Commercial Communications
Bus & Motor
CUBESAT 3U?, Unknown motor
Mass
3 kg wet, 3 kg dry
Launch date (UTC)
2024-11-04 (2 years ago)
Launch vehicle
SOYUZ-2-1B
Launch site
Vostochny Cosmodrome (VOSTO)
Object type
Unknown
Shape & HBR
Box, 0.2 m
Radar Cross Section
0.035 m², Medium (>0.1 m² and < 1m²)

Expand to show TLE details & history
Last TLE update: 5 hours ago

TLE from 5 hours ago
0 OBJECT AX
1 61780U 24199AX  26264.56725676  .00063945  00000-0  52929-3 0  9998
2 61780  97.2717 143.7709 0002225 286.4035  73.6982 15.70068298149507
Epoch: 2026-09-21T13:36Z
TLE epoch observation values (Epoch: 2026-09-21T13:36:50.984Z)
Latitude
-0.00008°
Longitude
-60.88676°
Altitude
361.443 km
Speed
7.693 km/s
True Right ascension
09h 35m 05s
True Declination
0° 00' 00"
Sunlit
Object was in daylight at epoch
Visualization orbit readout
Latitude
Unknown
Longitude
Unknown
Altitude
Unknown
Speed
Unknown
Apparent Right ascension
Unknown
Apparent Declination
Unknown
Sunlit
N/A
Visualization observer readout
Local Sidereal Time
12:00:03
Azimuth
Unknown
Elevation
Unknown
Doppler factor
Unknown
Orbital elements
Apogee altitude
357.093 km
Perigee altitude
354.097 km
Semi-major axis
6,733.732 km
Eccentricity
0.00022
Inclination
97.2717°
RAAN
143.7709°
Arg. of periapsis
286.4035°
True anomaly
73.72267°
Mean anomaly
73.6982°
Eccentric anomaly
73.71044°
Mean motion
3.92789 °/min
Orbital period
91.65 mins
BSTAR
0.00052929
Loading maneuver chart data...
Computing Atmospheric mass density...
Loading historical data...
Loading historical data...
Loading historical data...
Loading historical data...
Loading historical data...
Loading historical data...
Loading historical data...

Documentation

Showing up to 5 results
|